Home > Weather > Bensheim > Past weeks

Flag for Germany Weather for the Past 2 Weeks in Bensheim, Hesse, Germany

Now
50 °F

Light rain. Partly sunny.


Feels Like: 45 °F
Forecast: 40 / 51 °F
Wind: 15 mph from Southwest

Location: Mannheim City

Current Time: Feb 8, 2016 at 2:06:52 PM

Latest Report: Feb 8, 2016 at 1:20 PM


Visibility: N/A

Pressure: 29.50 "Hg

Humidity: 82%

Dew point: 45 °F

Location of BensheimLocation

Historic Weather in Bensheim — Graph

°F

Bensheim Temperature Yesterday

Maximum temperature yesterday: 48 °F (at 12:20 PM)
Minimum temperature yesterday: 46 °F (at 7:20 AM)
Average temperature yesterday: 47 °F

High & Low Weather Summary for the Past Weeks

 TemperatureHumidityPressure
High59 °F (Jan 26, 3:20 PM)100% (Jan 31, 8:50 AM)30.54 "Hg (Jan 31, 8:50 AM)
Low37 °F (Jan 29, 7:50 AM)50% (Jan 29, 1:50 PM)29.50 "Hg (Feb 8, 11:50 AM)
Average48 °F75%30.15 "Hg
* Reported Jan 24 12:20 PM — Feb 8 12:50 PM, Bensheim, Weather by CustomWeather, © 2016

Note: Actual official high and low records may vary slightly from our data, if they occured in-between our weather recording intervals... More about our weather records

Advertising

Bensheim Weather History for the Previous 24 Hours

 ConditionsComfort  
Time TempWeatherWind HumidityBarometerVisibility
12:50 PM
Mon, Feb 8
52 °FPartly sunny.16 mph72%29.50 "HgN/A
12:20 PM52 °FLight rain. Scattered clouds.16 mph72%29.50 "HgN/A
11:50 AM50 °FLight rain. Broken clouds.18 mph76%29.50 "HgN/A
11:20 AM50 °FLight rain. Scattered clouds.20 mph76%29.53 "HgN/A
10:50 AM50 °FPartly sunny.14 mph76%29.53 "HgN/A
10:20 AM50 °FLight rain. Partly sunny.20 mph71%29.53 "HgN/A
9:50 AM50 °FPartly sunny.14 mph62%29.56 "HgN/A
9:20 AM50 °FLight rain. Overcast.17 mph58%29.56 "HgN/A
8:50 AM50 °FOvercast.15 mph58%29.56 "HgN/A
8:20 AM48 °FOvercast.14 mph62%29.59 "HgN/A
7:50 AM48 °FOvercast.15 mph62%29.59 "HgN/A
7:20 AM48 °FOvercast.15 mph62%29.62 "HgN/A
6:50 AM48 °FOvercast.13 mph62%29.62 "HgN/A
6:20 AM46 °FPassing clouds.14 mph66%29.65 "HgN/A
4:50 PM
Sun, Feb 7
48 °FPartly sunny.10 mph82%29.74 "HgN/A
4:20 PM48 °FScattered clouds.9 mph76%29.74 "HgN/A
3:50 PM48 °FBroken clouds.10 mph82%29.71 "HgN/A
3:20 PM48 °FPartly sunny.9 mph76%29.71 "HgN/A
2:50 PM48 °FPassing clouds.7 mph76%29.71 "HgN/A
2:20 PM48 °FPartly sunny.8 mph71%29.68 "HgN/A
Weather by CustomWeather, © 2016

See weather overviewHow to use our weather pages